When you browse on this site, cookies collect data to enhance your experience and personalize the content and advertising you see.
Visit our Privacy Policy to learn more. By continuing to use the site, you agree to this use of cookies and data.
  • In Czech Republic
  • List of Countries
  • For 7 days
  • Water Temperature
  • Satellite Maps
  • Weather Map
  • Weather Widgets
  • user-avatar
    Login

    Hourly Weather Aba-el-Baul

    Today, 26 April, Friday

    Time Temperature Precipitation Wind Pressure Humidity
    00:00 +22°C° 0 mm 3 mps 757 mmHg 40%
    01:00 +22°C° 0 mm 3 mps 757 mmHg 42%
    02:00 +22°C° 0 mm 3 mps 756 mmHg 43%
    03:00 +22°C° 0 mm 4 mps 756 mmHg 45%
    04:00 +22°C° 0 mm 4 mps 756 mmHg 44%
    05:00 +22°C° 0 mm 4 mps 756 mmHg 43%
    06:00 +22°C° 0 mm 4 mps 756 mmHg 42%
    07:00 +25°C° 0 mm 5 mps 757 mmHg 34%
    08:00 +27°C° 0 mm 6 mps 757 mmHg 27%
    09:00 +29°C° 0 mm 7 mps 757 mmHg 20%
    10:00 +30°C° 0 mm 7 mps 757 mmHg 19%
    11:00 +32°C° 0 mm 7 mps 757 mmHg 17%
    12:00 +33°C° 0 mm 7 mps 757 mmHg 16%
    13:00 +33°C° 0 mm 8 mps 757 mmHg 16%
    14:00 +33°C° 0 mm 8 mps 756 mmHg 16%
    15:00 +32°C° 0 mm 8 mps 756 mmHg 16%
    16:00 +32°C° 0 mm 8 mps 756 mmHg 17%
    17:00 +30°C° 0 mm 7 mps 756 mmHg 17%
    18:00 +29°C° 0 mm 6 mps 756 mmHg 18%
    19:00 +28°C° 0 mm 5 mps 756 mmHg 19%
    20:00 +28°C° 0 mm 5 mps 757 mmHg 19%
    21:00 +28°C° 0 mm 4 mps 757 mmHg 20%
    22:00 +27°C° 0 mm 4 mps 756 mmHg 21%
    23:00 +27°C° 0 mm 3 mps 756 mmHg 22%

    Tomorrow, 27 April, Saturday

    Time Temperature Precipitation Wind Pressure Humidity
    00:00 +26°C° 0 mm 3 mps 756 mmHg 24%
    01:00 +26°C° 0 mm 3 mps 756 mmHg 27%
    02:00 +26°C° 0 mm 4 mps 756 mmHg 30%
    03:00 +25°C° 0 mm 4 mps 756 mmHg 33%
    04:00 +25°C° 0 mm 4 mps 756 mmHg 34%
    05:00 +25°C° 0 mm 4 mps 756 mmHg 36%
    06:00 +25°C° 0 mm 4 mps 756 mmHg 37%
    07:00 +27°C° 0 mm 4 mps 757 mmHg 31%
    08:00 +28°C° 0 mm 5 mps 757 mmHg 26%
    09:00 +30°C° 0 mm 5 mps 758 mmHg 20%
    10:00 +32°C° 0 mm 5 mps 758 mmHg 19%
    11:00 +32°C° 0 mm 5 mps 757 mmHg 18%
    12:00 +32°C° 0 mm 5 mps 757 mmHg 17%
    13:00 +32°C° 0 mm 5 mps 757 mmHg 16%
    14:00 +32°C° 0 mm 6 mps 756 mmHg 16%
    15:00 +33°C° 0 mm 6 mps 756 mmHg 16%
    16:00 +32°C° 0 mm 6 mps 755 mmHg 16%
    17:00 +32°C° 0 mm 5 mps 755 mmHg 16%
    18:00 +30°C° 0 mm 4 mps 755 mmHg 16%
    19:00 +29°C° 0 mm 4 mps 756 mmHg 18%
    20:00 +28°C° 0 mm 3 mps 756 mmHg 20%
    21:00 +27°C° 0 mm 3 mps 756 mmHg 22%
    22:00 +26°C° 0 mm 3 mps 756 mmHg 26%
    23:00 +26°C° 0 mm 3 mps 756 mmHg 30%

    Day after tomorrow, 28 April, Sunday

    Time Temperature Precipitation Wind Pressure Humidity
    00:00 +25°C° 0 mm 3 mps 756 mmHg 34%
    01:00 +25°C° 0 mm 3 mps 755 mmHg 34%
    02:00 +25°C° 0 mm 3 mps 755 mmHg 34%
    03:00 +25°C° 0 mm 3 mps 755 mmHg 34%
    04:00 +25°C° 0 mm 3 mps 755 mmHg 34%
    05:00 +25°C° 0 mm 3 mps 755 mmHg 34%
    06:00 +25°C° 0 mm 3 mps 755 mmHg 34%
    07:00 +27°C° 0 mm 3 mps 755 mmHg 30%
    08:00 +28°C° 0 mm 3 mps 756 mmHg 27%
    09:00 +30°C° 0 mm 4 mps 757 mmHg 23%
    10:00 +31°C° 0 mm 3 mps 756 mmHg 21%
    11:00 +32°C° 0 mm 2 mps 756 mmHg 20%
    12:00 +34°C° 0 mm 2 mps 756 mmHg 18%
    13:00 +35°C° 0 mm 2 mps 755 mmHg 18%
    14:00 +35°C° 0 mm 3 mps 755 mmHg 19%
    15:00 +36°C° 0 mm 3 mps 754 mmHg 19%
    16:00 +35°C° 0 mm 4 mps 754 mmHg 22%
    17:00 +34°C° 0 mm 4 mps 754 mmHg 25%
    18:00 +32°C° 0 mm 4 mps 754 mmHg 28%
    19:00 +30°C° 0 mm 4 mps 755 mmHg 31%
    20:00 +30°C° 0 mm 4 mps 755 mmHg 34%
    21:00 +29°C° 0 mm 3 mps 756 mmHg 37%
    22:00 +28°C° 0 mm 3 mps 756 mmHg 36%
    23:00 +28°C° 0 mm 2 mps 755 mmHg 35%

    29 April, Monday

    Time Temperature Precipitation Wind Pressure Humidity
    00:00 +28°C° 0 mm 2 mps 755 mmHg 34%
    01:00 +27°C° 0 mm 2 mps 755 mmHg 35%
    02:00 +27°C° 0 mm 2 mps 754 mmHg 36%
    03:00 +27°C° 0 mm 2 mps 754 mmHg 37%
    04:00 +27°C° 0 mm 2 mps 754 mmHg 37%
    05:00 +27°C° 0 mm 2 mps 754 mmHg 37%
    06:00 +27°C° 0 mm 2 mps 755 mmHg 37%
    07:00 +28°C° 0 mm 3 mps 755 mmHg 34%
    08:00 +30°C° 0 mm 4 mps 756 mmHg 31%
    09:00 +32°C° 0 mm 5 mps 756 mmHg 28%
    10:00 +34°C° 0 mm 4 mps 756 mmHg 26%
    11:00 +35°C° 0 mm 3 mps 756 mmHg 23%
    12:00 +36°C° 0 mm 3 mps 756 mmHg 21%
    13:00 +36°C° 0 mm 3 mps 755 mmHg 21%
    14:00 +37°C° 0 mm 4 mps 755 mmHg 21%
    15:00 +37°C° 0 mm 4 mps 754 mmHg 20%
    16:00 +36°C° 0 mm 4 mps 754 mmHg 22%
    17:00 +35°C° 0 mm 5 mps 754 mmHg 23%
    18:00 +34°C° 0 mm 5 mps 754 mmHg 25%
    19:00 +33°C° 0 mm 4 mps 755 mmHg 26%
    20:00 +32°C° 0 mm 4 mps 755 mmHg 27%
    21:00 +30°C° 0 mm 4 mps 755 mmHg 28%
    22:00 +30°C° 0 mm 4 mps 755 mmHg 30%
    23:00 +29°C° 0 mm 3 mps 755 mmHg 32%

    30 April, Tuesday

    Time Temperature Precipitation Wind Pressure Humidity
    00:00 +28°C° 0 mm 3 mps 755 mmHg 34%
    01:00 +28°C° 0 mm 3 mps 754 mmHg 35%
    02:00 +27°C° 0 mm 3 mps 754 mmHg 36%
    03:00 +27°C° 0 mm 4 mps 754 mmHg 38%
    04:00 +27°C° 0 mm 4 mps 754 mmHg 36%
    05:00 +27°C° 0 mm 3 mps 754 mmHg 35%
    06:00 +27°C° 0 mm 3 mps 755 mmHg 33%
    07:00 +29°C° 0 mm 4 mps 755 mmHg 27%
    08:00 +33°C° 0 mm 4 mps 755 mmHg 21%
    09:00 +35°C° 0 mm 5 mps 756 mmHg 16%
    10:00 +36°C° 0 mm 5 mps 755 mmHg 14%
    11:00 +37°C° 0 mm 4 mps 755 mmHg 13%
    12:00 +40°C° 0 mm 4 mps 754 mmHg 12%
    13:00 +40°C° 0 mm 4 mps 754 mmHg 12%
    14:00 +40°C° 0 mm 4 mps 753 mmHg 12%
    15:00 +41°C° 0 mm 4 mps 753 mmHg 11%
    16:00 +38°C° 0 mm 4 mps 753 mmHg 12%
    17:00 +37°C° 0 mm 4 mps 753 mmHg 14%
    18:00 +36°C° 0 mm 4 mps 753 mmHg 15%
    19:00 +35°C° 0 mm 3 mps 753 mmHg 16%
    20:00 +34°C° 0 mm 3 mps 754 mmHg 17%
    21:00 +32°C° 0 mm 2 mps 754 mmHg 19%
    22:00 +31°C° 0 mm 2 mps 753 mmHg 19%
    23:00 +31°C° 0 mm 1 mps 753 mmHg 19%

    1 May, Wednesday

    Time Temperature Precipitation Wind Pressure Humidity
    00:00 +30°C° 0 mm 1 mps 752 mmHg 19%
    01:00 +30°C° 0 mm 1 mps 752 mmHg 18%
    02:00 +29°C° 0 mm 1 mps 751 mmHg 18%
    03:00 +29°C° 0 mm 1 mps 751 mmHg 18%
    04:00 +29°C° 0 mm 1 mps 751 mmHg 17%
    05:00 +30°C° 0 mm 2 mps 751 mmHg 17%
    06:00 +30°C° 0 mm 2 mps 752 mmHg 17%
    07:00 +32°C° 0 mm 1 mps 752 mmHg 16%
    08:00 +33°C° 0 mm 1 mps 752 mmHg 15%
    09:00 +33°C° 0 mm 0 mps 752 mmHg 14%
    10:00 +36°C° 0 mm 1 mps 752 mmHg 13%
    11:00 +39°C° 0 mm 1 mps 752 mmHg 12%
    12:00 +40°C° 0 mm 1 mps 751 mmHg 12%
    13:00 +41°C° 0 mm 2 mps 751 mmHg 12%
    14:00 +42°C° 0 mm 3 mps 751 mmHg 12%
    15:00 +42°C° 0 mm 4 mps 750 mmHg 13%
    16:00 +41°C° 0 mm 4 mps 750 mmHg 14%
    17:00 +40°C° 0 mm 4 mps 750 mmHg 16%
    18:00 +37°C° 0 mm 4 mps 750 mmHg 17%
    19:00 +36°C° 0 mm 4 mps 750 mmHg 19%
    20:00 +35°C° 0 mm 4 mps 751 mmHg 21%
    21:00 +34°C° 0 mm 4 mps 751 mmHg 23%
    22:00 +34°C° 0 mm 4 mps 750 mmHg 23%
    23:00 +34°C° 0 mm 4 mps 750 mmHg 24%
    Show more